Time,TemperatureF,DewpointF,PressureIn,WindDirection,WindDirectionDegrees,WindSpeedMPH,WindSpeedGustMPH,Humidity,HourlyPrecipIn,Conditions,Clouds,dailyrainin,SoftwareType,DateUTC
2013-07-16 00:03:00,78.6,72.8,30.26,SSE,147,0.0,3.0,82,-99.99,,,0.00,1-wire,2013-07-16 05:03:00,
2013-07-16 00:09:00,78.6,72.6,30.26,SSE,165,0.0,3.0,82,-99.99,,,0.00,1-wire,2013-07-16 05:09:00,
2013-07-16 00:15:00,78.6,72.7,30.26,SSE,165,0.0,0.0,82,-99.99,,,0.00,1-wire,2013-07-16 05:15:00,
2013-07-16 00:21:00,78.4,72.8,30.26,SSE,160,0.0,0.0,83,-99.99,,,0.00,1-wire,2013-07-16 05:21:00,
2013-07-16 00:27:00,78.0,72.6,30.26,SSE,160,0.0,0.0,84,-99.99,,,0.00,1-wire,2013-07-16 05:27:00,
2013-07-16 00:33:00,78.0,72.6,30.26,SSE,160,0.0,0.0,84,-99.99,,,0.00,1-wire,2013-07-16 05:33:00,
2013-07-16 00:39:00,78.1,72.7,30.26,SSE,158,0.0,0.0,84,-99.99,,,0.00,1-wire,2013-07-16 05:39:00,
2013-07-16 00:45:00,78.0,72.7,30.26,SSE,158,0.0,0.0,84,-99.99,,,0.00,1-wire,2013-07-16 05:45:00,
2013-07-16 00:51:00,77.8,72.6,30.26,SSE,158,0.0,3.0,84,-99.99,,,0.00,1-wire,2013-07-16 05:51:00,
2013-07-16 00:57:00,77.9,72.7,30.26,SSE,158,1.0,3.0,84,-99.99,,,0.00,1-wire,2013-07-16 05:57:00,
2013-07-16 01:03:00,78.0,72.8,30.26,SSE,158,0.0,0.0,84,-99.99,,,0.00,1-wire,2013-07-16 06:03:00,
2013-07-16 01:09:00,77.8,72.7,30.25,South,182,0.0,0.0,84,-99.99,,,0.00,1-wire,2013-07-16 06:09:00,
2013-07-16 01:15:00,77.7,72.8,30.25,South,182,0.0,0.0,85,-99.99,,,0.00,1-wire,2013-07-16 06:15:00,
2013-07-16 01:21:00,77.5,72.6,30.25,South,186,0.0,3.0,85,-99.99,,,0.00,1-wire,2013-07-16 06:21:00,
2013-07-16 01:27:00,77.5,72.7,30.25,South,186,0.0,0.0,85,-99.99,,,0.00,1-wire,2013-07-16 06:27:00,
2013-07-16 01:33:00,77.5,72.6,30.25,South,186,0.0,3.0,85,-99.99,,,0.00,1-wire,2013-07-16 06:33:00,
2013-07-16 01:39:00,77.5,72.5,30.25,South,182,0.0,3.0,85,-99.99,,,0.00,1-wire,2013-07-16 06:39:00,
2013-07-16 01:45:00,77.7,72.7,30.26,South,182,0.0,3.0,85,-99.99,,,0.00,1-wire,2013-07-16 06:45:00,
2013-07-16 01:51:00,77.4,72.5,30.26,South,183,0.0,0.0,85,-99.99,,,0.00,1-wire,2013-07-16 06:51:00,
2013-07-16 01:57:00,77.4,72.5,30.25,South,183,0.0,3.0,85,-99.99,,,0.00,1-wire,2013-07-16 06:57:00,
2013-07-16 02:03:00,77.5,72.5,30.25,South,183,0.0,0.0,85,-99.99,,,0.00,1-wire,2013-07-16 07:03:00,
2013-07-16 02:09:00,77.6,72.6,30.26,South,185,0.0,3.0,85,-99.99,,,0.00,1-wire,2013-07-16 07:09:00,
2013-07-16 02:15:00,77.6,72.6,30.26,South,185,0.0,0.0,85,-99.99,,,0.00,1-wire,2013-07-16 07:15:00,
2013-07-16 02:21:00,77.4,72.5,30.26,South,188,0.0,0.0,85,-99.99,,,0.00,1-wire,2013-07-16 07:21:00,
2013-07-16 02:27:00,77.5,72.6,30.26,South,188,0.0,0.0,85,-99.99,,,0.00,1-wire,2013-07-16 07:27:00,
2013-07-16 02:33:00,77.6,72.8,30.26,South,188,0.0,0.0,85,-99.99,,,0.00,1-wire,2013-07-16 07:33:00,
2013-07-16 02:39:00,77.1,72.3,30.25,South,189,0.0,0.0,85,-99.99,,,0.00,1-wire,2013-07-16 07:39:00,
2013-07-16 02:45:00,77.1,72.6,30.26,South,189,0.0,0.0,86,-99.99,,,0.00,1-wire,2013-07-16 07:45:00,
2013-07-16 02:51:00,76.8,72.6,30.25,SSW,194,0.0,0.0,87,-99.99,,,0.00,1-wire,2013-07-16 07:51:00,
2013-07-16 02:57:00,76.8,72.6,30.25,SSW,194,0.0,0.0,87,-99.99,,,0.00,1-wire,2013-07-16 07:57:00,
2013-07-16 03:03:00,76.5,72.3,30.25,SSW,194,0.0,0.0,87,-99.99,,,0.00,1-wire,2013-07-16 08:03:00,
2013-07-16 03:09:00,76.7,72.5,30.25,SSW,198,0.0,0.0,87,-99.99,,,0.00,1-wire,2013-07-16 08:09:00,
2013-07-16 03:15:00,76.5,72.6,30.26,SSW,198,0.0,0.0,88,-99.99,,,0.00,1-wire,2013-07-16 08:15:00,
2013-07-16 03:21:00,76.4,72.5,30.26,SSW,208,0.0,0.0,88,-99.99,,,0.00,1-wire,2013-07-16 08:21:00,
2013-07-16 03:26:00,76.0,72.3,30.26,SSW,208,0.0,0.0,88,-99.99,,,0.00,1-wire,2013-07-16 08:26:00,
2013-07-16 03:31:00,76.1,72.3,30.26,SSW,208,0.0,0.0,88,-99.99,,,0.00,1-wire,2013-07-16 08:31:00,
2013-07-16 03:36:00,76.2,72.4,30.25,South,191,0.0,0.0,88,-99.99,,,0.00,1-wire,2013-07-16 08:36:00,
2013-07-16 03:41:00,76.2,72.5,30.25,South,191,0.0,0.0,88,-99.99,,,0.00,1-wire,2013-07-16 08:41:00,
2013-07-16 03:46:00,76.3,72.5,30.25,South,191,0.0,0.0,88,-99.99,,,0.00,1-wire,2013-07-16 08:46:00,
2013-07-16 03:51:00,75.9,72.2,30.26,SSW,194,0.0,0.0,88,-99.99,,,0.00,1-wire,2013-07-16 08:51:00,
2013-07-16 03:56:00,76.0,72.2,30.26,SSW,194,0.0,0.0,88,-99.99,,,0.00,1-wire,2013-07-16 08:56:00,
2013-07-16 04:01:00,76.0,72.1,30.26,SSW,194,0.0,0.0,88,-99.99,,,0.00,1-wire,2013-07-16 09:01:00,
2013-07-16 04:06:00,75.9,72.3,30.26,South,184,0.0,0.0,89,-99.99,,,0.00,1-wire,2013-07-16 09:06:00,
2013-07-16 04:11:00,76.0,72.3,30.26,South,184,0.0,0.0,88,-99.99,,,0.00,1-wire,2013-07-16 09:11:00,
2013-07-16 04:16:00,75.8,72.1,30.26,South,184,0.0,0.0,88,-99.99,,,0.00,1-wire,2013-07-16 09:16:00,
2013-07-16 04:21:00,75.9,72.2,30.26,South,184,0.0,0.0,88,-99.99,,,0.00,1-wire,2013-07-16 09:21:00,
2013-07-16 04:26:00,75.6,72.0,30.26,South,184,0.0,0.0,88,-99.99,,,0.00,1-wire,2013-07-16 09:26:00,
2013-07-16 04:31:00,75.6,72.0,30.27,South,184,0.0,0.0,89,-99.99,,,0.00,1-wire,2013-07-16 09:31:00,
2013-07-16 04:36:00,75.4,71.9,30.26,South,181,0.0,0.0,89,-99.99,,,0.00,1-wire,2013-07-16 09:36:00,
2013-07-16 04:41:00,75.0,71.7,30.27,South,181,0.0,0.0,89,-99.99,,,0.00,1-wire,2013-07-16 09:41:00,
2013-07-16 04:46:00,75.2,71.9,30.26,South,181,0.0,0.0,89,-99.99,,,0.00,1-wire,2013-07-16 09:46:00,
2013-07-16 04:51:00,75.0,71.8,30.27,South,184,0.0,0.0,90,-99.99,,,0.00,1-wire,2013-07-16 09:51:00,
2013-07-16 04:56:00,74.9,71.9,30.27,South,184,0.0,0.0,90,-99.99,,,0.00,1-wire,2013-07-16 09:56:00,
2013-07-16 05:01:00,74.9,71.8,30.27,South,184,0.0,0.0,90,-99.99,,,0.00,1-wire,2013-07-16 10:01:00,
2013-07-16 05:06:00,75.1,72.0,30.27,South,183,0.0,0.0,90,-99.99,,,0.00,1-wire,2013-07-16 10:06:00,
2013-07-16 05:11:00,75.2,72.1,30.27,South,183,0.0,0.0,90,-99.99,,,0.00,1-wire,2013-07-16 10:11:00,
2013-07-16 05:16:00,75.0,72.0,30.27,South,183,0.0,0.0,90,-99.99,,,0.00,1-wire,2013-07-16 10:16:00,
2013-07-16 05:21:00,75.0,72.0,30.27,NNW,344,0.0,0.0,90,-99.99,,,0.00,1-wire,2013-07-16 10:21:00,
2013-07-16 05:26:00,74.9,72.0,30.27,NNW,344,0.0,0.0,91,-99.99,,,0.00,1-wire,2013-07-16 10:26:00,
2013-07-16 05:31:00,75.0,72.1,30.27,NNW,344,0.0,3.0,91,-99.99,,,0.00,1-wire,2013-07-16 10:31:00,
2013-07-16 05:36:00,75.1,72.2,30.27,NNW,348,0.0,0.0,91,-99.99,,,0.00,1-wire,2013-07-16 10:36:00,
2013-07-16 05:41:00,74.9,72.1,30.27,NNW,348,0.0,0.0,91,-99.99,,,0.00,1-wire,2013-07-16 10:41:00,
2013-07-16 05:46:00,75.0,72.1,30.27,NNW,348,0.0,0.0,91,-99.99,,,0.00,1-wire,2013-07-16 10:46:00,
2013-07-16 05:51:00,75.0,72.0,30.27,NNW,345,0.0,0.0,91,-99.99,,,0.00,1-wire,2013-07-16 10:51:00,
2013-07-16 05:56:00,74.8,71.7,30.28,NNW,345,0.0,0.0,90,-99.99,,,0.00,1-wire,2013-07-16 10:56:00,
2013-07-16 06:01:00,74.9,72.0,30.28,NNW,345,0.0,0.0,91,-99.99,,,0.00,1-wire,2013-07-16 11:01:00,
2013-07-16 06:06:00,74.7,71.9,30.28,South,170,0.0,0.0,91,-99.99,,,0.00,1-wire,2013-07-16 11:06:00,
2013-07-16 06:11:00,74.6,71.9,30.29,South,170,0.0,0.0,91,-99.99,,,0.00,1-wire,2013-07-16 11:11:00,
2013-07-16 06:16:00,74.6,71.9,30.28,South,170,0.0,0.0,92,-99.99,,,0.00,1-wire,2013-07-16 11:16:00,
2013-07-16 06:21:00,74.9,72.2,30.29,SSE,150,0.0,0.0,91,-99.99,,,0.00,1-wire,2013-07-16 11:21:00,
2013-07-16 06:26:00,75.0,72.4,30.29,SSE,150,0.0,0.0,92,-99.99,,,0.00,1-wire,2013-07-16 11:26:00,
2013-07-16 06:32:00,75.2,72.6,30.29,SSE,150,0.0,0.0,92,-99.99,,,0.00,1-wire,2013-07-16 11:32:00,
2013-07-16 06:37:00,75.1,72.5,30.29,SSE,154,0.0,0.0,91,-99.99,,,0.00,1-wire,2013-07-16 11:37:00,
2013-07-16 06:42:00,75.4,72.9,30.29,SSE,154,0.0,0.0,92,-99.99,,,0.00,1-wire,2013-07-16 11:42:00,
2013-07-16 06:47:00,75.5,72.9,30.29,SSE,154,0.0,0.0,92,-99.99,,,0.00,1-wire,2013-07-16 11:47:00,
2013-07-16 06:52:00,75.7,72.9,30.29,SSE,159,0.0,0.0,91,-99.99,,,0.00,1-wire,2013-07-16 11:52:00,
2013-07-16 06:58:00,76.0,73.3,30.29,SSE,159,0.0,0.0,91,-99.99,,,0.00,1-wire,2013-07-16 11:58:00,
2013-07-16 07:04:00,76.0,73.2,30.29,SSE,159,0.0,0.0,91,-99.99,,,0.00,1-wire,2013-07-16 12:04:00,
2013-07-16 07:09:00,76.1,72.9,30.29,South,179,0.0,0.0,90,-99.99,,,0.00,1-wire,2013-07-16 12:09:00,
2013-07-16 07:14:00,76.4,72.9,30.29,South,179,0.0,0.0,89,-99.99,,,0.00,1-wire,2013-07-16 12:14:00,
2013-07-16 07:19:00,76.7,73.2,30.29,South,179,1.0,3.0,89,-99.99,,,0.00,1-wire,2013-07-16 12:19:00,
2013-07-16 07:24:00,76.8,72.9,30.29,South,183,0.0,0.0,88,-99.99,,,0.00,1-wire,2013-07-16 12:24:00,
2013-07-16 07:30:00,77.0,72.7,30.29,South,183,0.0,0.0,87,-99.99,,,0.00,1-wire,2013-07-16 12:30:00,
2013-07-16 07:35:00,77.3,72.9,30.29,South,183,0.0,3.0,86,-99.99,,,0.00,1-wire,2013-07-16 12:35:00,
2013-07-16 07:40:00,77.6,73.1,30.29,SSW,195,0.0,0.0,86,-99.99,,,0.00,1-wire,2013-07-16 12:40:00,
2013-07-16 07:45:00,77.8,72.9,30.29,SSW,195,0.0,0.0,85,-99.99,,,0.00,1-wire,2013-07-16 12:45:00,
2013-07-16 07:50:00,78.1,72.9,30.29,SSW,195,2.0,6.0,84,-99.99,,,0.00,1-wire,2013-07-16 12:50:00,
2013-07-16 07:56:00,78.2,72.8,30.29,SSW,195,1.0,3.0,84,-99.99,,,0.00,1-wire,2013-07-16 12:56:00,
2013-07-16 08:01:00,78.6,73.1,30.29,SSW,195,1.0,3.0,83,-99.99,,,0.00,1-wire,2013-07-16 13:01:00,
2013-07-16 08:06:00,78.9,72.9,30.29,SSW,201,0.0,0.0,82,-99.99,,,0.00,1-wire,2013-07-16 13:06:00,
2013-07-16 08:11:00,79.3,73.2,30.29,SSW,201,0.0,3.0,82,-99.99,,,0.00,1-wire,2013-07-16 13:11:00,
2013-07-16 08:16:00,79.9,73.9,30.30,SSW,201,0.0,3.0,82,-99.99,,,0.00,1-wire,2013-07-16 13:16:00,
2013-07-16 08:22:00,79.7,73.0,30.30,SSW,195,0.0,3.0,80,-99.99,,,0.00,1-wire,2013-07-16 13:22:00,
2013-07-16 08:27:00,80.1,73.1,30.30,SSW,195,0.0,0.0,79,-99.99,,,0.00,1-wire,2013-07-16 13:27:00,
2013-07-16 08:32:00,80.9,73.9,30.30,SSW,195,1.0,3.0,79,-99.99,,,0.00,1-wire,2013-07-16 13:32:00,
2013-07-16 08:37:00,81.4,73.6,30.30,SSW,197,0.0,0.0,77,-99.99,,,0.00,1-wire,2013-07-16 13:37:00,
2013-07-16 08:42:00,81.4,73.6,30.30,SSW,197,1.0,3.0,77,-99.99,,,0.00,1-wire,2013-07-16 13:42:00,
2013-07-16 08:47:00,81.8,73.7,30.30,SSW,197,2.0,9.0,76,-99.99,,,0.00,1-wire,2013-07-16 13:47:00,
2013-07-16 08:52:00,82.2,74.2,30.30,SSW,192,0.0,3.0,77,-99.99,,,0.00,1-wire,2013-07-16 13:52:00,
2013-07-16 08:57:00,82.9,74.4,30.30,SSW,192,1.0,6.0,76,-99.99,,,0.00,1-wire,2013-07-16 13:57:00,
2013-07-16 09:02:00,83.4,75.1,30.30,SSW,192,1.0,6.0,76,-99.99,,,0.00,1-wire,2013-07-16 14:02:00,
2013-07-16 09:07:00,83.4,74.3,30.30,SSW,207,1.0,3.0,74,-99.99,,,0.00,1-wire,2013-07-16 14:07:00,
2013-07-16 09:12:00,83.8,74.8,30.30,SSW,207,1.0,3.0,74,-99.99,,,0.00,1-wire,2013-07-16 14:12:00,
2013-07-16 09:17:00,83.6,74.5,30.30,SSW,207,0.0,3.0,74,-99.99,,,0.00,1-wire,2013-07-16 14:17:00,
2013-07-16 09:22:00,84.0,75.3,30.29,SW,216,1.0,3.0,75,-99.99,,,0.00,1-wire,2013-07-16 14:22:00,
2013-07-16 09:25:00,84.0,74.4,30.30,SW,216,0.0,0.0,73,-99.99,,,0.00,1-wire,2013-07-16 14:25:00,
2013-07-16 09:30:00,84.4,74.7,30.30,SW,216,1.0,3.0,73,-99.99,,,0.00,1-wire,2013-07-16 14:30:00,
2013-07-16 09:35:00,83.9,73.8,30.30,SW,216,1.0,3.0,72,-99.99,,,0.00,1-wire,2013-07-16 14:35:00,
2013-07-16 09:40:00,84.2,74.0,30.30,SW,219,1.0,3.0,72,-99.99,,,0.00,1-wire,2013-07-16 14:40:00,
2013-07-16 09:45:00,84.7,74.5,30.30,SW,219,1.0,3.0,72,-99.99,,,0.00,1-wire,2013-07-16 14:45:00,
2013-07-16 09:50:00,84.7,74.0,30.30,SW,219,0.0,0.0,70,-99.99,,,0.00,1-wire,2013-07-16 14:50:00,
2013-07-16 09:55:00,85.0,74.4,30.30,SW,214,0.0,3.0,71,-99.99,,,0.00,1-wire,2013-07-16 14:55:00,
2013-07-16 10:00:00,86.3,76.0,30.30,SW,214,1.0,5.0,71,-99.99,,,0.00,1-wire,2013-07-16 15:00:00,
2013-07-16 10:05:00,86.3,74.9,30.29,SW,214,1.0,3.0,69,-99.99,,,0.00,1-wire,2013-07-16 15:05:00,
2013-07-16 10:10:00,87.0,75.9,30.29,WSW,239,1.0,6.0,70,-99.99,,,0.00,1-wire,2013-07-16 15:10:00,
2013-07-16 10:15:00,86.9,75.0,30.30,WSW,239,1.0,3.0,68,-99.99,,,0.00,1-wire,2013-07-16 15:15:00,
2013-07-16 10:20:00,87.4,75.7,30.30,WSW,239,2.0,6.0,68,-99.99,,,0.00,1-wire,2013-07-16 15:20:00,
2013-07-16 10:25:00,87.0,75.0,30.30,WSW,239,2.0,6.0,68,-99.99,,,0.00,1-wire,2013-07-16 15:25:00,
2013-07-16 10:30:00,85.8,73.9,30.29,WSW,239,0.0,3.0,68,-99.99,,,0.00,1-wire,2013-07-16 15:30:00,
2013-07-16 10:35:00,86.3,75.3,30.29,WSW,239,0.0,3.0,70,-99.99,,,0.00,1-wire,2013-07-16 15:35:00,
2013-07-16 10:40:00,86.7,74.5,30.29,WSW,247,1.0,3.0,67,-99.99,,,0.00,1-wire,2013-07-16 15:40:00,
2013-07-16 10:45:00,86.4,74.8,30.30,WSW,247,0.0,3.0,68,-99.99,,,0.00,1-wire,2013-07-16 15:45:00,
2013-07-16 10:50:00,86.2,73.7,30.29,WSW,247,0.0,3.0,67,-99.99,,,0.00,1-wire,2013-07-16 15:50:00,
2013-07-16 10:55:00,85.9,73.6,30.30,WSW,252,1.0,6.0,67,-99.99,,,0.00,1-wire,2013-07-16 15:55:00,
2013-07-16 11:00:00,86.1,74.1,30.29,WSW,252,0.0,3.0,68,-99.99,,,0.00,1-wire,2013-07-16 16:00:00,
2013-07-16 11:05:00,87.2,74.4,30.29,WSW,252,0.0,0.0,66,-99.99,,,0.00,1-wire,2013-07-16 16:05:00,
2013-07-16 11:11:00,86.8,73.7,30.29,SW,229,1.0,3.0,65,-99.99,,,0.00,1-wire,2013-07-16 16:11:00,
2013-07-16 11:17:00,86.8,73.7,30.29,SW,229,0.0,3.0,65,-99.99,,,0.00,1-wire,2013-07-16 16:17:00,
2013-07-16 11:22:00,87.2,72.2,30.29,SW,235,2.0,6.0,61,-99.99,,,0.00,1-wire,2013-07-16 16:22:00,
2013-07-16 11:27:00,86.1,72.2,30.29,SW,235,0.0,3.0,63,-99.99,,,0.00,1-wire,2013-07-16 16:27:00,
2013-07-16 11:32:00,86.8,73.5,30.29,SW,235,0.0,3.0,65,-99.99,,,0.00,1-wire,2013-07-16 16:32:00,
2013-07-16 11:38:00,88.1,72.5,30.29,West,275,2.0,6.0,60,-99.99,,,0.00,1-wire,2013-07-16 16:38:00,
2013-07-16 11:43:00,88.8,74.1,30.29,West,275,0.0,3.0,62,-99.99,,,0.00,1-wire,2013-07-16 16:43:00,
2013-07-16 11:48:00,89.0,73.8,30.29,West,275,2.0,6.0,61,-99.99,,,0.00,1-wire,2013-07-16 16:48:00,
2013-07-16 11:54:00,89.6,73.7,30.29,WSW,243,1.0,3.0,60,-99.99,,,0.00,1-wire,2013-07-16 16:54:00,
2013-07-16 12:00:00,88.7,73.2,30.29,WSW,243,1.0,3.0,61,-99.99,,,0.00,1-wire,2013-07-16 17:00:00,
2013-07-16 12:05:00,88.6,72.6,30.29,WSW,243,0.0,0.0,59,-99.99,,,0.00,1-wire,2013-07-16 17:05:00,
2013-07-16 12:10:00,89.2,74.8,30.29,West,264,0.0,3.0,63,-99.99,,,0.00,1-wire,2013-07-16 17:10:00,
2013-07-16 12:16:00,90.1,73.0,30.29,West,264,2.0,5.0,58,-99.99,,,0.00,1-wire,2013-07-16 17:16:00,
2013-07-16 12:21:00,89.5,72.2,30.28,West,271,3.0,6.0,57,-99.99,,,0.00,1-wire,2013-07-16 17:21:00,
2013-07-16 12:26:00,90.0,72.2,30.29,West,271,0.0,3.0,56,-99.99,,,0.00,1-wire,2013-07-16 17:26:00,
2013-07-16 12:32:00,90.1,71.0,30.29,West,271,1.0,5.0,54,-99.99,,,0.00,1-wire,2013-07-16 17:32:00,
2013-07-16 12:37:00,90.5,72.9,30.28,WSW,242,0.0,3.0,57,-99.99,,,0.00,1-wire,2013-07-16 17:37:00,
2013-07-16 12:43:00,91.3,73.6,30.29,WSW,242,2.0,6.0,56,-99.99,,,0.00,1-wire,2013-07-16 17:43:00,
2013-07-16 12:48:00,90.0,72.4,30.28,WSW,242,3.0,6.0,56,-99.99,,,0.00,1-wire,2013-07-16 17:48:00,
2013-07-16 12:53:00,90.2,73.0,30.28,SW,222,2.0,6.0,57,-99.99,,,0.00,1-wire,2013-07-16 17:53:00,
2013-07-16 12:58:00,90.7,74.4,30.29,SW,222,2.0,6.0,59,-99.99,,,0.00,1-wire,2013-07-16 17:58:00,
2013-07-16 13:03:00,90.1,72.7,30.28,SW,222,3.0,7.0,57,-99.99,,,0.00,1-wire,2013-07-16 18:03:00,
2013-07-16 13:08:00,89.5,73.6,30.27,SSW,212,0.0,0.0,60,-99.99,,,0.00,1-wire,2013-07-16 18:08:00,
2013-07-16 13:13:00,88.5,72.9,30.28,SSW,212,1.0,3.0,60,-99.99,,,0.00,1-wire,2013-07-16 18:13:00,
2013-07-16 13:18:00,88.4,73.0,30.27,SSW,212,0.0,0.0,61,-99.99,,,0.00,1-wire,2013-07-16 18:18:00,
2013-07-16 13:23:00,88.9,73.4,30.27,SW,227,0.0,3.0,61,-99.99,,,0.00,1-wire,2013-07-16 18:23:00,
2013-07-16 13:28:00,88.0,72.4,30.27,SW,227,1.0,3.0,60,-99.99,,,0.00,1-wire,2013-07-16 18:28:00,
2013-07-16 13:33:00,87.8,73.9,30.27,SW,227,1.0,3.0,64,-99.99,,,0.00,1-wire,2013-07-16 18:33:00,
2013-07-16 13:38:00,87.4,73.0,30.27,SW,228,0.0,3.0,62,-99.99,,,0.00,1-wire,2013-07-16 18:38:00,
2013-07-16 13:43:00,88.5,73.5,30.27,SW,228,1.0,3.0,61,-99.99,,,0.00,1-wire,2013-07-16 18:43:00,
2013-07-16 13:48:00,90.1,73.8,30.27,SW,228,1.0,5.0,59,-99.99,,,0.00,1-wire,2013-07-16 18:48:00,
2013-07-16 13:53:00,91.1,74.3,30.27,SW,232,1.0,5.0,58,-99.99,,,0.00,1-wire,2013-07-16 18:53:00,
2013-07-16 13:58:00,91.5,73.0,30.27,SW,232,2.0,3.0,55,-99.99,,,0.00,1-wire,2013-07-16 18:58:00,
2013-07-16 14:03:00,89.6,72.6,30.27,SW,232,1.0,3.0,58,-99.99,,,0.00,1-wire,2013-07-16 19:03:00,
2013-07-16 14:08:00,89.4,73.5,30.27,WSW,245,1.0,3.0,60,-99.99,,,0.00,1-wire,2013-07-16 19:08:00,
2013-07-16 14:13:00,89.8,72.8,30.27,WSW,245,0.0,3.0,58,-99.99,,,0.00,1-wire,2013-07-16 19:13:00,
2013-07-16 14:18:00,88.5,72.4,30.27,WSW,245,0.0,0.0,59,-99.99,,,0.00,1-wire,2013-07-16 19:18:00,
2013-07-16 14:23:00,88.5,73.5,30.27,WSW,245,0.0,0.0,61,-99.99,,,0.00,1-wire,2013-07-16 19:23:00,
2013-07-16 14:28:00,89.5,72.6,30.27,WSW,245,4.0,8.0,58,-99.99,,,0.00,1-wire,2013-07-16 19:28:00,
2013-07-16 14:33:00,90.0,73.1,30.27,WSW,245,4.0,6.0,58,-99.99,,,0.00,1-wire,2013-07-16 19:33:00,
2013-07-16 14:38:00,89.8,72.6,30.27,WSW,247,2.0,6.0,57,-99.99,,,0.00,1-wire,2013-07-16 19:38:00,
2013-07-16 14:43:00,90.1,74.0,30.27,WSW,247,0.0,3.0,59,-99.99,,,0.00,1-wire,2013-07-16 19:43:00,
2013-07-16 14:48:00,90.9,75.0,30.26,WSW,247,1.0,3.0,60,-99.99,,,0.00,1-wire,2013-07-16 19:48:00,
2013-07-16 14:53:00,89.7,72.7,30.26,SW,222,1.0,5.0,58,-99.99,,,0.00,1-wire,2013-07-16 19:53:00,
2013-07-16 14:58:00,89.0,73.6,30.26,SW,222,1.0,3.0,61,-99.99,,,0.00,1-wire,2013-07-16 19:58:00,
2013-07-16 15:03:00,90.3,75.2,30.26,SW,222,1.0,3.0,61,-99.99,,,0.00,1-wire,2013-07-16 20:03:00,
2013-07-16 15:08:00,90.7,73.2,30.25,SW,234,1.0,5.0,57,-99.99,,,0.00,1-wire,2013-07-16 20:08:00,
2013-07-16 15:13:00,91.6,73.2,30.26,SW,234,1.0,3.0,55,-99.99,,,0.00,1-wire,2013-07-16 20:13:00,
2013-07-16 15:18:00,91.3,74.0,30.25,SW,234,1.0,5.0,57,-99.99,,,0.00,1-wire,2013-07-16 20:18:00,
2013-07-16 15:23:00,91.1,73.2,30.26,SW,222,2.0,3.0,56,-99.99,,,0.00,1-wire,2013-07-16 20:23:00,
2013-07-16 15:28:00,91.3,74.4,30.26,SW,222,2.0,6.0,58,-99.99,,,0.00,1-wire,2013-07-16 20:28:00,
2013-07-16 15:33:00,91.3,73.1,30.25,SW,222,2.0,6.0,55,-99.99,,,0.00,1-wire,2013-07-16 20:33:00,
2013-07-16 15:38:00,91.4,73.6,30.25,SW,226,3.0,6.0,56,-99.99,,,0.00,1-wire,2013-07-16 20:38:00,
2013-07-16 15:43:00,91.2,72.7,30.26,SW,226,1.0,3.0,55,-99.99,,,0.00,1-wire,2013-07-16 20:43:00,
2013-07-16 15:48:00,90.3,73.7,30.25,SW,226,0.0,3.0,58,-99.99,,,0.00,1-wire,2013-07-16 20:48:00,
2013-07-16 15:53:00,90.0,73.1,30.25,SW,223,1.0,6.0,58,-99.99,,,0.00,1-wire,2013-07-16 20:53:00,
2013-07-16 15:59:00,90.4,73.8,30.25,SW,223,0.0,3.0,58,-99.99,,,0.00,1-wire,2013-07-16 20:59:00,
2013-07-16 16:04:00,89.6,73.1,30.25,SW,223,2.0,6.0,59,-99.99,,,0.00,1-wire,2013-07-16 21:04:00,
2013-07-16 16:09:00,89.8,72.7,30.25,West,259,2.0,6.0,57,-99.99,,,0.00,1-wire,2013-07-16 21:09:00,
2013-07-16 16:14:00,89.6,72.4,30.25,West,259,1.0,3.0,57,-99.99,,,0.00,1-wire,2013-07-16 21:14:00,
2013-07-16 16:20:00,90.3,72.9,30.25,West,259,0.0,3.0,57,-99.99,,,0.00,1-wire,2013-07-16 21:20:00,
2013-07-16 16:25:00,90.2,72.6,30.25,WSW,242,1.0,5.0,56,-99.99,,,0.00,1-wire,2013-07-16 21:25:00,
2013-07-16 16:30:00,89.6,72.5,30.25,WSW,242,1.0,3.0,57,-99.99,,,0.00,1-wire,2013-07-16 21:30:00,
2013-07-16 16:36:00,88.8,72.6,30.25,WSW,252,0.0,3.0,59,-99.99,,,0.00,1-wire,2013-07-16 21:36:00,
2013-07-16 16:42:00,89.0,72.7,30.25,WSW,252,1.0,6.0,59,-99.99,,,0.00,1-wire,2013-07-16 21:42:00,
2013-07-16 16:47:00,89.4,73.3,30.25,WSW,252,1.0,3.0,59,-99.99,,,0.00,1-wire,2013-07-16 21:47:00,
2013-07-16 16:52:00,90.0,73.9,30.25,West,260,2.0,6.0,59,-99.99,,,0.00,1-wire,2013-07-16 21:52:00,
2013-07-16 16:58:00,90.3,72.9,30.25,West,260,4.0,8.0,57,-99.99,,,0.00,1-wire,2013-07-16 21:58:00,
2013-07-16 17:04:00,90.5,72.8,30.25,West,260,2.0,6.0,56,-99.99,,,0.00,1-wire,2013-07-16 22:04:00,
2013-07-16 17:10:00,90.7,74.1,30.25,WSW,247,1.0,3.0,58,-99.99,,,0.00,1-wire,2013-07-16 22:10:00,
2013-07-16 17:15:00,90.6,73.3,30.25,WSW,247,0.0,3.0,57,-99.99,,,0.00,1-wire,2013-07-16 22:15:00,
2013-07-16 17:20:00,90.3,72.8,30.25,WSW,247,1.0,3.0,57,-99.99,,,0.00,1-wire,2013-07-16 22:20:00,
2013-07-16 17:25:00,89.4,72.6,30.25,SW,229,0.0,0.0,58,-99.99,,,0.00,1-wire,2013-07-16 22:25:00,
2013-07-16 17:31:00,89.6,72.9,30.25,SW,229,1.0,3.0,58,-99.99,,,0.00,1-wire,2013-07-16 22:31:00,
2013-07-16 17:36:00,90.4,74.1,30.25,WSW,237,1.0,3.0,59,-99.99,,,0.00,1-wire,2013-07-16 22:36:00,
2013-07-16 17:41:00,90.6,73.0,30.24,WSW,237,3.0,6.0,56,-99.99,,,0.00,1-wire,2013-07-16 22:41:00,
2013-07-16 17:46:00,90.5,73.0,30.24,WSW,237,2.0,6.0,57,-99.99,,,0.00,1-wire,2013-07-16 22:46:00,
2013-07-16 17:51:00,90.0,72.4,30.25,WSW,247,1.0,6.0,56,-99.99,,,0.00,1-wire,2013-07-16 22:51:00,
2013-07-16 17:56:00,90.0,73.0,30.24,WSW,247,2.0,6.0,58,-99.99,,,0.00,1-wire,2013-07-16 22:56:00,
2013-07-16 18:01:00,90.0,73.4,30.24,WSW,247,0.0,3.0,58,-99.99,,,0.00,1-wire,2013-07-16 23:01:00,
2013-07-16 18:06:00,89.7,72.5,30.25,SW,228,1.0,3.0,57,-99.99,,,0.00,1-wire,2013-07-16 23:06:00,
2013-07-16 18:11:00,89.8,72.7,30.25,SW,228,2.0,6.0,57,-99.99,,,0.00,1-wire,2013-07-16 23:11:00,
2013-07-16 18:16:00,89.7,72.6,30.25,SW,228,0.0,3.0,57,-99.99,,,0.00,1-wire,2013-07-16 23:16:00,
2013-07-16 18:21:00,90.0,73.1,30.25,WSW,249,2.0,6.0,58,-99.99,,,0.00,1-wire,2013-07-16 23:21:00,
2013-07-16 18:26:00,89.9,73.6,30.25,WSW,249,0.0,3.0,59,-99.99,,,0.00,1-wire,2013-07-16 23:26:00,
2013-07-16 18:31:00,89.5,72.9,30.25,WSW,249,1.0,3.0,58,-99.99,,,0.00,1-wire,2013-07-16 23:31:00,
2013-07-16 18:36:00,89.2,72.7,30.24,WSW,244,0.0,3.0,58,-99.99,,,0.00,1-wire,2013-07-16 23:36:00,
2013-07-16 18:41:00,89.0,72.9,30.25,WSW,244,2.0,3.0,59,-99.99,,,0.00,1-wire,2013-07-16 23:41:00,
2013-07-16 18:46:00,88.5,72.1,30.24,WSW,244,0.0,3.0,59,-99.99,,,0.00,1-wire,2013-07-16 23:46:00,
2013-07-16 18:51:00,88.6,72.7,30.24,WSW,241,1.0,6.0,60,-99.99,,,0.00,1-wire,2013-07-16 23:51:00,
2013-07-16 18:56:00,88.7,73.5,30.25,WSW,241,0.0,0.0,61,-99.99,,,0.00,1-wire,2013-07-16 23:56:00,
2013-07-16 19:01:00,88.0,72.8,30.25,WSW,241,0.0,0.0,61,-99.99,,,0.00,1-wire,2013-07-17 00:01:00,
2013-07-16 19:06:00,88.5,73.5,30.25,SW,232,1.0,7.0,61,-99.99,,,0.00,1-wire,2013-07-17 00:06:00,
2013-07-16 19:11:00,88.0,73.2,30.25,SW,232,0.0,3.0,62,-99.99,,,0.00,1-wire,2013-07-17 00:11:00,
2013-07-16 19:16:00,88.0,72.5,30.25,SW,232,3.0,6.0,60,-99.99,,,0.00,1-wire,2013-07-17 00:16:00,
2013-07-16 19:21:00,87.8,73.2,30.25,WSW,240,0.0,3.0,62,-99.99,,,0.00,1-wire,2013-07-17 00:21:00,
2013-07-16 19:26:00,87.7,72.9,30.25,WSW,240,0.0,0.0,62,-99.99,,,0.00,1-wire,2013-07-17 00:26:00,
2013-07-16 19:31:00,87.5,73.1,30.25,WSW,240,0.0,3.0,63,-99.99,,,0.00,1-wire,2013-07-17 00:31:00,
2013-07-16 19:36:00,87.2,73.0,30.25,WSW,240,1.0,3.0,63,-99.99,,,0.00,1-wire,2013-07-17 00:36:00,
2013-07-16 19:41:00,87.3,73.4,30.25,WSW,240,0.0,0.0,63,-99.99,,,0.00,1-wire,2013-07-17 00:41:00,
2013-07-16 19:46:00,86.8,72.6,30.25,WSW,240,1.0,3.0,63,-99.99,,,0.00,1-wire,2013-07-17 00:46:00,
2013-07-16 19:51:00,86.9,72.9,30.25,WSW,248,1.0,3.0,63,-99.99,,,0.00,1-wire,2013-07-17 00:51:00,
2013-07-16 19:56:00,86.7,72.8,30.25,WSW,248,1.0,3.0,64,-99.99,,,0.00,1-wire,2013-07-17 00:56:00,
2013-07-16 20:01:00,86.7,73.1,30.25,WSW,248,0.0,0.0,64,-99.99,,,0.00,1-wire,2013-07-17 01:01:00,
2013-07-16 20:06:00,86.6,73.3,30.25,SW,226,0.0,0.0,65,-99.99,,,0.00,1-wire,2013-07-17 01:06:00,
2013-07-16 20:11:00,86.2,73.1,30.25,SW,226,0.0,0.0,65,-99.99,,,0.00,1-wire,2013-07-17 01:11:00,
2013-07-16 20:16:00,86.1,73.4,30.25,SW,226,0.0,0.0,66,-99.99,,,0.00,1-wire,2013-07-17 01:16:00,
2013-07-16 20:21:00,86.0,73.4,30.25,SW,229,0.0,0.0,66,-99.99,,,0.00,1-wire,2013-07-17 01:21:00,
2013-07-16 20:27:00,85.9,73.4,30.25,SW,229,0.0,0.0,66,-99.99,,,0.00,1-wire,2013-07-17 01:27:00,
2013-07-16 20:33:00,85.3,73.4,30.25,SW,229,0.0,0.0,68,-99.99,,,0.00,1-wire,2013-07-17 01:33:00,
2013-07-16 20:39:00,84.9,73.2,30.25,SW,230,0.0,0.0,68,-99.99,,,0.00,1-wire,2013-07-17 01:39:00,
2013-07-16 20:45:00,84.7,73.3,30.25,SW,230,0.0,0.0,69,-99.99,,,0.00,1-wire,2013-07-17 01:45:00,
2013-07-16 20:51:00,84.6,73.4,30.25,SW,230,0.0,0.0,69,-99.99,,,0.00,1-wire,2013-07-17 01:51:00,
2013-07-16 20:57:00,84.3,73.3,30.25,SW,230,0.0,0.0,70,-99.99,,,0.00,1-wire,2013-07-17 01:57:00,
2013-07-16 21:03:00,84.0,73.3,30.25,SW,230,0.0,0.0,70,-99.99,,,0.00,1-wire,2013-07-17 02:03:00,
2013-07-16 21:09:00,83.9,73.1,30.26,SW,224,0.0,0.0,70,-99.99,,,0.00,1-wire,2013-07-17 02:09:00,
2013-07-16 21:15:00,83.7,73.3,30.25,SW,224,0.0,0.0,71,-99.99,,,0.00,1-wire,2013-07-17 02:15:00,
2013-07-16 21:21:00,83.7,73.4,30.26,SW,223,0.0,0.0,71,-99.99,,,0.00,1-wire,2013-07-17 02:21:00,
2013-07-16 21:27:00,83.4,73.2,30.26,SW,223,0.0,0.0,71,-99.99,,,0.00,1-wire,2013-07-17 02:27:00,
2013-07-16 21:33:00,83.1,73.2,30.26,SW,223,0.0,0.0,72,-99.99,,,0.00,1-wire,2013-07-17 02:33:00,
2013-07-16 21:39:00,83.1,73.5,30.26,SW,219,0.0,0.0,73,-99.99,,,0.00,1-wire,2013-07-17 02:39:00,
2013-07-16 21:45:00,82.9,73.2,30.26,SW,219,0.0,0.0,73,-99.99,,,0.00,1-wire,2013-07-17 02:45:00,
2013-07-16 21:51:00,82.8,73.3,30.27,SW,221,0.0,0.0,73,-99.99,,,0.00,1-wire,2013-07-17 02:51:00,
2013-07-16 21:57:00,82.8,73.5,30.27,SW,221,0.0,0.0,74,-99.99,,,0.00,1-wire,2013-07-17 02:57:00,
2013-07-16 22:03:00,82.7,73.3,30.27,SW,221,0.0,0.0,74,-99.99,,,0.00,1-wire,2013-07-17 03:03:00,
2013-07-16 22:09:00,82.7,73.7,30.27,SW,214,0.0,0.0,74,-99.99,,,0.00,1-wire,2013-07-17 03:09:00,
2013-07-16 22:15:00,82.6,73.6,30.27,SW,214,0.0,0.0,74,-99.99,,,0.00,1-wire,2013-07-17 03:15:00,
2013-07-16 22:21:00,82.5,73.7,30.27,SW,216,0.0,0.0,75,-99.99,,,0.00,1-wire,2013-07-17 03:21:00,
2013-07-16 22:27:00,82.1,73.6,30.27,SW,216,0.0,0.0,76,-99.99,,,0.00,1-wire,2013-07-17 03:27:00,
2013-07-16 22:33:00,82.3,73.8,30.27,SW,216,0.0,0.0,76,-99.99,,,0.00,1-wire,2013-07-17 03:33:00,
2013-07-16 22:39:00,82.3,73.8,30.27,SSW,208,0.0,0.0,75,-99.99,,,0.00,1-wire,2013-07-17 03:39:00,
2013-07-16 22:45:00,81.9,73.6,30.27,SSW,208,0.0,3.0,76,-99.99,,,0.00,1-wire,2013-07-17 03:45:00,
2013-07-16 22:51:00,81.6,73.6,30.27,SW,215,0.0,0.0,77,-99.99,,,0.00,1-wire,2013-07-17 03:51:00,
2013-07-16 22:57:00,81.7,73.6,30.27,SW,215,0.0,0.0,76,-99.99,,,0.00,1-wire,2013-07-17 03:57:00,
2013-07-16 23:01:00,81.9,73.7,30.27,SW,215,0.0,0.0,76,-99.99,,,0.00,1-wire,2013-07-17 04:01:00,
2013-07-16 23:02:00,81.8,73.6,30.27,SW,215,0.0,0.0,76,-99.99,,,0.00,1-wire,2013-07-17 04:02:00,
2013-07-16 23:03:00,81.6,73.5,30.27,SW,215,0.0,0.0,76,-99.99,,,0.00,1-wire,2013-07-17 04:03:00,
2013-07-16 23:06:00,81.7,73.8,30.27,SW,220,0.0,0.0,77,-99.99,,,0.00,1-wire,2013-07-17 04:06:00,
2013-07-16 23:07:00,81.7,73.9,30.27,SW,220,0.0,0.0,77,-99.99,,,0.00,1-wire,2013-07-17 04:07:00,
2013-07-16 23:12:00,81.8,73.8,30.27,SW,220,0.0,0.0,77,-99.99,,,0.00,1-wire,2013-07-17 04:12:00,
2013-07-16 23:17:00,81.8,73.9,30.27,SW,220,0.0,0.0,77,-99.99,,,0.00,1-wire,2013-07-17 04:17:00,
2013-07-16 23:22:00,81.5,73.7,30.28,SW,217,0.0,0.0,77,-99.99,,,0.00,1-wire,2013-07-17 04:22:00,
2013-07-16 23:27:00,81.2,73.6,30.28,SW,217,0.0,0.0,78,-99.99,,,0.00,1-wire,2013-07-17 04:27:00,
2013-07-16 23:33:00,81.1,73.5,30.28,SW,217,0.0,0.0,78,-99.99,,,0.00,1-wire,2013-07-17 04:33:00,
2013-07-16 23:39:00,81.1,73.6,30.28,SW,224,0.0,0.0,78,-99.99,,,0.00,1-wire,2013-07-17 04:39:00,
2013-07-16 23:45:00,80.9,73.6,30.29,SW,224,0.0,0.0,78,-99.99,,,0.00,1-wire,2013-07-17 04:45:00,
2013-07-16 23:51:00,81.0,73.8,30.28,SW,220,0.0,0.0,79,-99.99,,,0.00,1-wire,2013-07-17 04:51:00,
2013-07-16 23:55:00,80.9,73.8,30.29,SW,220,0.0,0.0,79,-99.99,,,0.00,1-wire,2013-07-17 04:55:00,
2013-07-16 23:59:00,80.8,73.7,30.28,SW,220,0.0,0.0,79,-99.99,,,0.00,1-wire,2013-07-17 04:59:00,